This is the latest recevied weather packets stored in our database for station/object KC1TWD. If no packets are shown the sender has not sent any weather packets the latest 10 day(s).
| Time | Temp. | Humidity | Pressure | Rain* | Wind** | Luminosity | Snow |
|---|---|---|---|---|---|---|---|
| 1778051067 | 15.56° C | 78% | 1008.5 hPa | 0 mm | - | - | - |
| 1778050764 | 15.56° C | 78% | 1008.5 hPa | 0 mm | - | - | - |
| 1778050462 | 15.56° C | 78% | 1008.6 hPa | 0 mm | - | - | - |
| 1778050158 | 15.56° C | 77% | 1008.5 hPa | 0 mm | - | - | - |
| 1778049854 | 15.56° C | 79% | 1008.6 hPa | 0 mm | - | - | - |
| 1778049551 | 15.56° C | 79% | 1008.4 hPa | 0 mm | - | - | - |
| 1778049249 | 15.56° C | 78% | 1008.5 hPa | 0 mm | - | - | - |
| 1778048946 | 16.11° C | 80% | 1008.5 hPa | 0 mm | - | - | - |
| 1778048644 | 16.11° C | 78% | 1008.3 hPa | 0 mm | - | - | - |
| 1778048340 | 16.67° C | 77% | 1008.3 hPa | 0 mm | - | - | - |
| 1778048037 | 16.11° C | 75% | 1008.4 hPa | 0 mm | - | - | - |
| 1778047735 | 16.67° C | 75% | 1008.2 hPa | 0 mm | - | - | - |
| 1778047433 | 16.67° C | 75% | 1008.1 hPa | 0 mm | - | - | - |
| 1778047129 | 16.67° C | 74% | 1008.1 hPa | 0 mm | - | - | - |
| 1778046826 | 16.11° C | 74% | 1008.2 hPa | 0 mm | - | - | - |
| 1778046523 | 16.11° C | 76% | 1008.2 hPa | 0 mm | - | - | - |
| 1778046220 | 16.11° C | 78% | 1008.1 hPa | 0 mm | - | - | - |
| 1778045916 | 16.11° C | 79% | 1008 hPa | 0 mm | - | - | - |
| 1778045615 | 16.11° C | 78% | 1008.4 hPa | 0 mm | - | - | - |
| 1778045313 | 16.11° C | 78% | 1008.3 hPa | 0 mm | - | - | - |
| 1778045011 | 16.11° C | 75% | 1008.3 hPa | 0 mm | - | - | - |
| 1778044708 | 16.67° C | 74% | 1008.2 hPa | 0 mm | - | - | - |
| 1778044405 | 16.67° C | 75% | 1008.5 hPa | 0 mm | - | - | - |
| 1778044102 | 16.67° C | 76% | 1008.2 hPa | 0 mm | - | - | - |
| 1778043799 | 16.67° C | 77% | 1008.2 hPa | 0 mm | - | - | - |
* Rain latest hour (hover to see other rain measurements)
** Current wind speed in m/s (hover to see current wind gust speed)